QPF
0.06 0.03 0.04 0.05 0.05 0.03 0.02 0.00 0.00 0.01 0.01 0.00 0.00 0.00 0.00 0.00 0.01 0.03 0.02 0.00 0.00 0.01 0.01 0.00 0.00 0.00 0.00 0.00 0.00 0.00 0.01 0.03 0.03 0.03 0.04 0.05 0.05 0.05 0.04 0.05 0.05 0.03 0.04 0.02 0.01 0.00 0.00 0.00 0.00
0.04 0.05 0.05 0.06 0.05 0.03 0.02 0.01 0.00 0.01 0.01 0.00 0.00 0.00 0.00 0.00 0.00 0.01 0.01 0.00 0.00 0.01 0.01 0.01 0.00 0.00 0.00 0.00 0.00 0.01 0.01 0.03 0.03 0.04 0.06 0.06 0.05 0.04 0.04 0.06 0.03 0.02 0.03 0.01 0.00 0.00 0.00 0.00 0.00
0.03 0.07 0.08 0.07 0.05 0.03 0.02 0.01 0.01 0.01 0.01 0.00 0.00 0.00 0.01 0.01 0.01 0.01 0.01 0.01 0.01 0.01 0.02 0.01 0.00 0.01 0.00 0.00 0.01 0.01 0.01 0.02 0.03 0.05 0.08 0.08 0.06 0.05 0.06 0.04 0.01 0.03 0.02 0.00 0.00 0.00 0.00 0.00 0.00
0.04 0.08 0.10 0.08 0.04 0.02 0.02 0.01 0.02 0.01 0.01 0.01 0.01 0.02 0.02 0.02 0.02 0.01 0.01 0.01 0.02 0.02 0.04 0.04 0.02 0.02 0.01 0.00 0.01 0.01 0.01 0.02 0.04 0.05 0.07 0.09 0.07 0.05 0.05 0.02 0.01 0.02 0.01 0.00 0.00 0.00 0.00 0.00 0.00
0.07 0.09 0.11 0.08 0.04 0.02 0.01 0.02 0.02 0.02 0.01 0.01 0.02 0.04 0.04 0.02 0.02 0.02 0.01 0.03 0.03 0.04 0.05 0.05 0.04 0.03 0.02 0.01 0.01 0.01 0.02 0.03 0.04 0.05 0.07 0.10 0.08 0.04 0.03 0.02 0.01 0.01 0.00 0.00 0.00 0.00 0.00 0.00 0.00
0.10 0.09 0.10 0.08 0.04 0.02 0.01 0.02 0.03 0.04 0.03 0.02 0.02 0.04 0.05 0.04 0.04 0.04 0.04 0.04 0.05 0.05 0.06 0.06 0.05 0.04 0.03 0.02 0.01 0.01 0.02 0.03 0.04 0.05 0.07 0.09 0.08 0.03 0.02 0.02 0.01 0.00 0.00 0.00 0.00 0.00 0.00 0.00 0.00
0.11 0.10 0.08 0.06 0.04 0.04 0.02 0.01 0.02 0.04 0.05 0.04 0.03 0.05 0.07 0.08 0.08 0.09 0.08 0.09 0.10 0.10 0.11 0.09 0.06 0.04 0.03 0.03 0.02 0.02 0.03 0.03 0.04 0.05 0.07 0.07 0.06 0.03 0.01 0.02 0.01 0.00 0.00 0.00 0.00 0.00 0.00 0.00 0.00
0.10 0.11 0.08 0.06 0.04 0.05 0.04 0.03 0.01 0.03 0.05 0.05 0.05 0.06 0.08 0.10 0.11 0.14 0.16 0.19 0.20 0.19 0.14 0.11 0.10 0.06 0.04 0.03 0.02 0.02 0.04 0.03 0.04 0.04 0.04 0.05 0.04 0.03 0.01 0.01 0.01 0.00 0.00 0.00 0.00 0.00 0.00 0.00 0.00
0.09 0.12 0.08 0.06 0.05 0.05 0.06 0.05 0.03 0.02 0.04 0.06 0.07 0.08 0.10 0.12 0.16 0.19 0.19 0.22 0.26 0.27 0.22 0.15 0.14 0.11 0.07 0.04 0.03 0.03 0.04 0.03 0.02 0.02 0.03 0.03 0.03 0.02 0.01 0.01 0.00 0.00 0.00 0.00 0.00 0.00 0.00 0.00 0.00
0.08 0.08 0.05 0.03 0.04 0.05 0.06 0.06 0.05 0.04 0.04 0.05 0.07 0.08 0.10 0.14 0.17 0.22 0.23 0.21 0.23 0.25 0.26 0.22 0.19 0.16 0.13 0.08 0.05 0.04 0.04 0.03 0.01 0.02 0.02 0.02 0.03 0.02 0.01 0.01 0.01 0.00 0.00 0.00 0.00 0.00 0.00 0.00 0.00
0.06 0.05 0.03 0.03 0.04 0.05 0.06 0.06 0.07 0.07 0.07 0.06 0.07 0.08 0.11 0.15 0.21 0.23 0.27 0.24 0.23 0.25 0.31 0.28 0.24 0.24 0.20 0.13 0.07 0.05 0.05 0.03 0.02 0.01 0.02 0.02 0.02 0.02 0.01 0.01 0.01 0.00 0.00 0.00 0.00 0.00 0.00 0.00 0.00
0.06 0.04 0.03 0.04 0.05 0.05 0.05 0.05 0.07 0.08 0.08 0.08 0.09 0.07 0.08 0.13 0.19 0.26 0.27 0.27 0.26 0.30 0.33 0.30 0.28 0.27 0.26 0.19 0.10 0.06 0.05 0.04 0.02 0.02 0.01 0.01 0.02 0.02 0.01 0.01 0.01 0.00 0.00 0.00 0.00 0.00 0.00 0.00 0.00
0.06 0.04 0.04 0.05 0.04 0.05 0.05 0.05 0.06 0.06 0.06 0.08 0.10 0.11 0.10 0.12 0.15 0.24 0.31 0.28 0.25 0.28 0.32 0.31 0.27 0.29 0.27 0.23 0.17 0.09 0.04 0.03 0.02 0.02 0.01 0.01 0.01 0.02 0.01 0.00 0.00 0.00 0.00 0.00 0.00 0.00 0.00 0.00 0.00
0.06 0.04 0.05 0.06 0.04 0.04 0.06 0.05 0.05 0.05 0.05 0.07 0.10 0.13 0.14 0.16 0.19 0.24 0.29 0.32 0.23 0.21 0.30 0.30 0.27 0.29 0.29 0.23 0.19 0.13 0.06 0.04 0.02 0.02 0.01 0.01 0.01 0.01 0.01 0.00 0.00 0.00 0.00 0.00 0.00 0.00 0.00 0.00 0.00
0.06 0.06 0.05 0.06 0.06 0.05 0.07 0.07 0.06 0.05 0.06 0.08 0.10 0.12 0.17 0.21 0.25 0.25 0.23 0.32 0.33 0.22 0.26 0.32 0.31 0.32 0.30 0.27 0.19 0.13 0.09 0.06 0.03 0.02 0.01 0.01 0.02 0.01 0.01 0.01 0.00 0.00 0.00 0.00 0.00 0.00 0.00 0.00 0.00
0.07 0.07 0.07 0.06 0.05 0.06 0.08 0.09 0.07 0.06 0.07 0.09 0.12 0.13 0.18 0.22 0.24 0.26 0.22 0.29 0.34 0.27 0.24 0.29 0.35 0.36 0.33 0.31 0.25 0.16 0.11 0.07 0.05 0.03 0.02 0.02 0.02 0.02 0.01 0.01 0.01 0.00 0.00 0.00 0.00 0.00 0.00 0.00 0.01
0.06 0.07 0.07 0.05 0.06 0.06 0.08 0.09 0.07 0.06 0.07 0.10 0.13 0.14 0.19 0.24 0.23 0.24 0.24 0.28 0.33 0.32 0.31 0.33 0.34 0.37 0.35 0.32 0.29 0.21 0.13 0.08 0.06 0.03 0.02 0.02 0.02 0.02 0.02 0.01 0.01 0.01 0.01 0.01 0.00 0.00 0.01 0.02 0.02
0.06 0.05 0.06 0.06 0.06 0.07 0.07 0.08 0.06 0.05 0.07 0.09 0.12 0.13 0.18 0.24 0.24 0.18 0.20 0.23 0.31 0.37 0.34 0.37 0.38 0.37 0.37 0.34 0.33 0.26 0.17 0.11 0.07 0.05 0.03 0.02 0.01 0.02 0.02 0.01 0.01 0.01 0.02 0.01 0.02 0.02 0.03 0.03 0.03
0.04 0.04 0.05 0.05 0.06 0.07 0.09 0.10 0.09 0.07 0.07 0.08 0.12 0.15 0.18 0.19 0.23 0.19 0.18 0.21 0.24 0.32 0.33 0.32 0.36 0.34 0.37 0.38 0.34 0.27 0.19 0.13 0.09 0.07 0.05 0.03 0.02 0.02 0.02 0.02 0.02 0.02 0.02 0.03 0.04 0.04 0.04 0.04 0.03
0.04 0.05 0.05 0.05 0.06 0.10 0.11 0.12 0.10 0.09 0.09 0.08 0.12 0.16 0.16 0.17 0.19 0.19 0.19 0.23 0.20 0.24 0.31 0.31 0.33 0.34 0.31 0.32 0.31 0.26 0.20 0.14 0.09 0.05 0.04 0.04 0.03 0.03 0.03 0.02 0.02 0.03 0.03 0.04 0.05 0.05 0.05 0.04 0.03
0.06 0.06 0.06 0.08 0.09 0.10 0.11 0.11 0.10 0.09 0.08 0.06 0.08 0.13 0.14 0.14 0.16 0.17 0.21 0.25 0.23 0.25 0.29 0.31 0.33 0.36 0.30 0.28 0.30 0.27 0.23 0.19 0.13 0.08 0.06 0.05 0.04 0.04 0.04 0.04 0.03 0.03 0.03 0.03 0.04 0.04 0.03 0.03 0.03
0.08 0.06 0.06 0.07 0.09 0.11 0.10 0.15 0.11 0.09 0.07 0.06 0.06 0.09 0.11 0.11 0.12 0.13 0.16 0.20 0.22 0.24 0.27 0.29 0.32 0.37 0.31 0.29 0.32 0.30 0.25 0.21 0.16 0.12 0.09 0.08 0.07 0.06 0.05 0.05 0.05 0.05 0.04 0.04 0.04 0.05 0.04 0.04 0.04
0.06 0.05 0.05 0.06 0.09 0.10 0.07 0.15 0.12 0.08 0.07 0.05 0.06 0.07 0.06 0.06 0.09 0.12 0.14 0.15 0.18 0.21 0.26 0.29 0.29 0.32 0.33 0.30 0.32 0.32 0.27 0.23 0.19 0.15 0.10 0.07 0.07 0.07 0.07 0.07 0.07 0.07 0.08 0.07 0.06 0.06 0.05 0.05 0.04
0.03 0.04 0.04 0.05 0.09 0.11 0.07 0.12 0.13 0.10 0.06 0.05 0.06 0.05 0.04 0.04 0.07 0.10 0.13 0.15 0.17 0.20 0.25 0.28 0.29 0.30 0.33 0.31 0.28 0.30 0.29 0.25 0.18 0.16 0.13 0.09 0.08 0.06 0.06 0.08 0.07 0.06 0.07 0.08 0.07 0.06 0.06 0.05 0.05
0.03 0.05 0.07 0.09 0.10 0.07 0.05 0.09 0.14 0.10 0.05 0.07 0.08 0.06 0.05 0.06 0.06 0.10 0.15 0.17 0.17 0.18 0.20 0.23 0.30 0.32 0.33 0.34 0.29 0.27 0.27 0.27 0.23 0.17 0.15 0.12 0.10 0.09 0.07 0.07 0.07 0.06 0.06 0.07 0.07 0.07 0.06 0.06 0.06
0.03 0.05 0.11 0.12 0.09 0.06 0.06 0.11 0.14 0.09 0.07 0.09 0.08 0.07 0.07 0.08 0.07 0.10 0.14 0.16 0.18 0.20 0.16 0.16 0.22 0.25 0.27 0.30 0.29 0.26 0.24 0.25 0.25 0.23 0.18 0.13 0.11 0.10 0.09 0.10 0.10 0.09 0.08 0.07 0.06 0.06 0.06 0.06 0.05
0.02 0.03 0.04 0.08 0.08 0.09 0.10 0.12 0.14 0.13 0.11 0.09 0.10 0.10 0.09 0.10 0.10 0.11 0.12 0.12 0.16 0.18 0.15 0.14 0.17 0.18 0.19 0.24 0.25 0.22 0.20 0.21 0.22 0.23 0.22 0.19 0.17 0.14 0.12 0.11 0.10 0.11 0.11 0.09 0.08 0.08 0.07 0.06 0.05
0.01 0.02 0.04 0.07 0.09 0.11 0.10 0.12 0.18 0.17 0.12 0.11 0.11 0.12 0.12 0.11 0.11 0.12 0.12 0.11 0.12 0.14 0.14 0.13 0.14 0.15 0.15 0.19 0.23 0.20 0.19 0.19 0.18 0.18 0.19 0.20 0.18 0.16 0.14 0.15 0.15 0.14 0.13 0.11 0.09 0.08 0.07 0.06 0.05
0.02 0.03 0.04 0.04 0.05 0.09 0.09 0.13 0.15 0.12 0.10 0.08 0.08 0.08 0.08 0.08 0.08 0.10 0.10 0.09 0.09 0.08 0.09 0.09 0.08 0.10 0.12 0.14 0.16 0.17 0.16 0.16 0.15 0.14 0.14 0.16 0.16 0.15 0.13 0.13 0.13 0.13 0.13 0.11 0.10 0.08 0.07 0.06 0.05
0.02 0.04 0.03 0.05 0.04 0.03 0.05 0.11 0.11 0.08 0.05 0.04 0.04 0.05 0.05 0.04 0.04 0.05 0.04 0.04 0.04 0.04 0.04 0.04 0.04 0.05 0.07 0.08 0.10 0.12 0.12 0.11 0.11 0.10 0.11 0.12 0.13 0.13 0.12 0.11 0.10 0.09 0.10 0.10 0.09 0.08 0.08 0.07 0.06
MSLP
1013.49 1013.61 1013.73 1013.78 1013.70 1013.45 1013.01 1012.37 1011.58 1010.70 1009.81 1008.98 1008.27 1007.71 1007.31 1007.05 1006.91 1006.86 1006.90 1007.02 1007.22 1007.53 1007.94 1008.45 1009.03 1009.63 1010.22 1010.73 1011.16 1011.49 1011.74 1011.96 1012.19 1012.48 1012.84 1013.27 1013.75 1014.25 1014.73 1015.15 1015.51 1015.80 1016.04 1016.25 1016.45 1016.64 1016.82 1016.98 1017.11
1013.72 1013.80 1013.84 1013.78 1013.57 1013.16 1012.57 1011.79 1010.89 1009.93 1009.00 1008.16 1007.47 1006.95 1006.60 1006.40 1006.33 1006.35 1006.46 1006.64 1006.91 1007.28 1007.75 1008.32 1008.95 1009.60 1010.22 1010.76 1011.21 1011.55 1011.82 1012.05 1012.29 1012.58 1012.94 1013.37 1013.86 1014.36 1014.85 1015.28 1015.66 1015.98 1016.25 1016.50 1016.72 1016.92 1017.10 1017.25 1017.36
1013.97 1013.99 1013.93 1013.75 1013.39 1012.85 1012.12 1011.24 1010.27 1009.28 1008.34 1007.53 1006.87 1006.40 1006.09 1005.94 1005.91 1005.98 1006.13 1006.35 1006.67 1007.09 1007.60 1008.21 1008.88 1009.56 1010.21 1010.78 1011.25 1011.62 1011.90 1012.15 1012.40 1012.70 1013.06 1013.49 1013.96 1014.46 1014.94 1015.38 1015.77 1016.12 1016.42 1016.70 1016.96 1017.19 1017.39 1017.54 1017.63
1014.26 1014.20 1014.03 1013.71 1013.23 1012.57 1011.75 1010.81 1009.82 1008.83 1007.92 1007.15 1006.54 1006.10 1005.84 1005.71 1005.71 1005.80 1005.96 1006.21 1006.55 1006.98 1007.52 1008.15 1008.83 1009.53 1010.19 1010.78 1011.27 1011.66 1011.98 1012.26 1012.54 1012.85 1013.21 1013.64 1014.10 1014.58 1015.04 1015.48 1015.89 1016.25 1016.59 1016.90 1017.20 1017.46 1017.68 1017.84 1017.93
1014.53 1014.39 1014.12 1013.69 1013.09 1012.35 1011.48 1010.53 1009.55 1008.61 1007.76 1007.04 1006.48 1006.08 1005.84 1005.72 1005.72 1005.81 1005.97 1006.22 1006.56 1007.00 1007.53 1008.15 1008.82 1009.51 1010.16 1010.76 1011.27 1011.69 1012.04 1012.36 1012.67 1013.02 1013.40 1013.83 1014.28 1014.75 1015.21 1015.64 1016.04 1016.42 1016.79 1017.14 1017.46 1017.76 1018.00 1018.17 1018.26
1014.76 1014.54 1014.18 1013.66 1013.00 1012.21 1011.34 1010.41 1009.49 1008.61 1007.83 1007.17 1006.65 1006.28 1006.05 1005.93 1005.92 1005.99 1006.14 1006.37 1006.69 1007.11 1007.62 1008.21 1008.85 1009.50 1010.14 1010.72 1011.24 1011.69 1012.08 1012.45 1012.81 1013.20 1013.62 1014.06 1014.52 1014.99 1015.44 1015.87 1016.27 1016.66 1017.04 1017.40 1017.75 1018.06 1018.32 1018.50 1018.59
1014.88 1014.60 1014.17 1013.60 1012.90 1012.12 1011.28 1010.41 1009.57 1008.78 1008.07 1007.47 1006.99 1006.64 1006.40 1006.27 1006.23 1006.28 1006.41 1006.62 1006.91 1007.30 1007.77 1008.32 1008.91 1009.52 1010.12 1010.68 1011.20 1011.68 1012.11 1012.53 1012.96 1013.40 1013.86 1014.33 1014.82 1015.29 1015.74 1016.16 1016.56 1016.95 1017.32 1017.69 1018.03 1018.34 1018.59 1018.76 1018.85
1014.86 1014.55 1014.07 1013.48 1012.79 1012.03 1011.25 1010.48 1009.73 1009.03 1008.40 1007.85 1007.41 1007.06 1006.80 1006.65 1006.58 1006.61 1006.71 1006.90 1007.17 1007.52 1007.95 1008.45 1008.98 1009.54 1010.10 1010.65 1011.17 1011.66 1012.14 1012.61 1013.09 1013.59 1014.10 1014.61 1015.12 1015.61 1016.06 1016.48 1016.88 1017.25 1017.60 1017.94 1018.26 1018.54 1018.77 1018.92 1018.99
1014.72 1014.37 1013.87 1013.27 1012.61 1011.92 1011.22 1010.54 1009.90 1009.29 1008.73 1008.23 1007.81 1007.46 1007.19 1007.01 1006.92 1006.91 1007.00 1007.16 1007.41 1007.73 1008.12 1008.57 1009.06 1009.57 1010.09 1010.61 1011.13 1011.64 1012.15 1012.67 1013.20 1013.75 1014.30 1014.85 1015.39 1015.89 1016.35 1016.77 1017.15 1017.50 1017.82 1018.12 1018.39 1018.63 1018.81 1018.93 1018.98
1014.48 1014.09 1013.58 1012.99 1012.37 1011.75 1011.14 1010.56 1010.01 1009.49 1009.00 1008.54 1008.13 1007.78 1007.50 1007.29 1007.18 1007.16 1007.22 1007.37 1007.59 1007.89 1008.24 1008.65 1009.09 1009.57 1010.07 1010.58 1011.09 1011.62 1012.16 1012.71 1013.28 1013.85 1014.43 1015.01 1015.55 1016.07 1016.53 1016.95 1017.32 1017.64 1017.93 1018.19 1018.41 1018.59 1018.72 1018.80 1018.82
1014.18 1013.76 1013.23 1012.65 1012.07 1011.52 1010.99 1010.50 1010.04 1009.59 1009.16 1008.74 1008.34 1007.99 1007.70 1007.48 1007.35 1007.31 1007.35 1007.48 1007.68 1007.95 1008.28 1008.65 1009.07 1009.53 1010.01 1010.52 1011.05 1011.59 1012.14 1012.71 1013.29 1013.87 1014.46 1015.03 1015.58 1016.09 1016.56 1016.98 1017.34 1017.65 1017.92 1018.13 1018.31 1018.43 1018.52 1018.55 1018.55
1013.88 1013.41 1012.86 1012.28 1011.73 1011.22 1010.76 1010.34 1009.95 1009.56 1009.17 1008.78 1008.41 1008.07 1007.78 1007.55 1007.41 1007.36 1007.39 1007.49 1007.67 1007.91 1008.21 1008.56 1008.97 1009.42 1009.91 1010.43 1010.97 1011.53 1012.09 1012.66 1013.23 1013.80 1014.36 1014.91 1015.45 1015.95 1016.42 1016.84 1017.21 1017.52 1017.78 1017.97 1018.12 1018.21 1018.26 1018.27 1018.25
1013.61 1013.08 1012.49 1011.90 1011.36 1010.88 1010.45 1010.07 1009.72 1009.37 1009.02 1008.67 1008.32 1008.00 1007.72 1007.51 1007.37 1007.30 1007.31 1007.40 1007.54 1007.76 1008.03 1008.37 1008.77 1009.24 1009.75 1010.29 1010.86 1011.44 1012.01 1012.57 1013.11 1013.64 1014.16 1014.67 1015.17 1015.66 1016.12 1016.55 1016.94 1017.27 1017.54 1017.74 1017.89 1017.97 1018.01 1018.01 1017.99
1013.37 1012.77 1012.14 1011.52 1010.96 1010.47 1010.05 1009.68 1009.34 1009.02 1008.69 1008.37 1008.06 1007.77 1007.52 1007.33 1007.21 1007.14 1007.14 1007.20 1007.32 1007.51 1007.76 1008.09 1008.50 1008.99 1009.53 1010.12 1010.73 1011.33 1011.91 1012.45 1012.96 1013.44 1013.90 1014.35 1014.81 1015.26 1015.72 1016.16 1016.58 1016.95 1017.25 1017.49 1017.66 1017.76 1017.81 1017.83 1017.83
1013.11 1012.46 1011.78 1011.12 1010.53 1010.01 1009.56 1009.18 1008.83 1008.51 1008.20 1007.90 1007.63 1007.38 1007.19 1007.04 1006.94 1006.89 1006.89 1006.93 1007.03 1007.19 1007.43 1007.76 1008.19 1008.71 1009.30 1009.94 1010.59 1011.23 1011.82 1012.35 1012.82 1013.25 1013.64 1014.03 1014.43 1014.86 1015.30 1015.76 1016.20 1016.61 1016.97 1017.26 1017.47 1017.61 1017.71 1017.76 1017.79
1012.79 1012.09 1011.37 1010.68 1010.05 1009.49 1009.00 1008.57 1008.19 1007.86 1007.55 1007.28 1007.05 1006.86 1006.72 1006.63 1006.58 1006.56 1006.58 1006.62 1006.70 1006.85 1007.08 1007.42 1007.87 1008.43 1009.08 1009.78 1010.49 1011.17 1011.78 1012.31 1012.75 1013.13 1013.46 1013.79 1014.14 1014.53 1014.95 1015.41 1015.88 1016.33 1016.73 1017.07 1017.34 1017.53 1017.68 1017.77 1017.85
1012.34 1011.63 1010.89 1010.18 1009.52 1008.91 1008.38 1007.90 1007.48 1007.12 1006.81 1006.56 1006.37 1006.24 1006.17 1006.15 1006.16 1006.19 1006.24 1006.30 1006.39 1006.54 1006.78 1007.13 1007.61 1008.22 1008.92 1009.68 1010.45 1011.18 1011.82 1012.36 1012.79 1013.13 1013.42 1013.69 1013.99 1014.33 1014.73 1015.18 1015.65 1016.12 1016.56 1016.94 1017.25 1017.50 1017.69 1017.84 1017.97
1011.72 1011.03 1010.32 1009.61 1008.94 1008.31 1007.74 1007.23 1006.77 1006.38 1006.07 1005.83 1005.68 1005.60 1005.60 1005.65 1005.73 1005.83 1005.92 1006.02 1006.14 1006.31 1006.57 1006.94 1007.46 1008.10 1008.86 1009.67 1010.50 1011.27 1011.95 1012.51 1012.94 1013.26 1013.52 1013.76 1014.01 1014.31 1014.68 1015.10 1015.56 1016.02 1016.46 1016.86 1017.20 1017.48 1017.71 1017.91 1018.08
1010.96 1010.32 1009.65 1008.99 1008.35 1007.74 1007.17 1006.64 1006.16 1005.76 1005.43 1005.20 1005.08 1005.05 1005.10 1005.22 1005.36 1005.52 1005.67 1005.82 1005.98 1006.19 1006.48 1006.89 1007.43 1008.11 1008.90 1009.76 1010.62 1011.44 1012.15 1012.73 1013.18 1013.51 1013.76 1013.97 1014.20 1014.46 1014.78 1015.16 1015.57 1016.01 1016.42 1016.81 1017.15 1017.45 1017.70 1017.93 1018.14
1010.08 1009.52 1008.94 1008.37 1007.81 1007.26 1006.73 1006.23 1005.76 1005.36 1005.03 1004.81 1004.69 1004.68 1004.77 1004.93 1005.13 1005.34 1005.55 1005.76 1005.97 1006.22 1006.55 1006.98 1007.55 1008.25 1009.05 1009.93 1010.81 1011.65 1012.39 1013.00 1013.47 1013.81 1014.07 1014.28 1014.48 1014.71 1014.99 1015.32 1015.68 1016.06 1016.43 1016.77 1017.09 1017.38 1017.64 1017.88 1018.11
1009.16 1008.70 1008.25 1007.81 1007.37 1006.94 1006.51 1006.08 1005.67 1005.30 1004.98 1004.76 1004.64 1004.62 1004.71 1004.88 1005.10 1005.35 1005.60 1005.85 1006.11 1006.40 1006.76 1007.21 1007.79 1008.49 1009.28 1010.15 1011.02 1011.86 1012.61 1013.23 1013.73 1014.10 1014.38 1014.60 1014.80 1015.01 1015.24 1015.52 1015.81 1016.12 1016.43 1016.72 1017.00 1017.26 1017.51 1017.76 1018.01
1008.31 1007.96 1007.64 1007.36 1007.09 1006.83 1006.55 1006.25 1005.94 1005.63 1005.34 1005.12 1004.98 1004.93 1004.99 1005.13 1005.33 1005.58 1005.84 1006.12 1006.41 1006.73 1007.11 1007.57 1008.13 1008.80 1009.56 1010.38 1011.21 1012.02 1012.75 1013.38 1013.89 1014.29 1014.60 1014.84 1015.05 1015.25 1015.46 1015.68 1015.92 1016.16 1016.40 1016.64 1016.87 1017.10 1017.33 1017.58 1017.84
1007.58 1007.33 1007.16 1007.06 1006.99 1006.94 1006.85 1006.73 1006.55 1006.33 1006.10 1005.88 1005.71 1005.61 1005.60 1005.67 1005.82 1006.03 1006.28 1006.55 1006.85 1007.18 1007.56 1008.01 1008.54 1009.16 1009.85 1010.59 1011.36 1012.10 1012.80 1013.41 1013.92 1014.34 1014.67 1014.94 1015.17 1015.37 1015.57 1015.76 1015.95 1016.14 1016.33 1016.51 1016.70 1016.90 1017.12 1017.36 1017.63
1007.03 1006.87 1006.83 1006.91 1007.05 1007.22 1007.36 1007.44 1007.43 1007.34 1007.17 1006.97 1006.77 1006.61 1006.51 1006.49 1006.55 1006.68 1006.88 1007.12 1007.41 1007.73 1008.10 1008.52 1009.00 1009.54 1010.14 1010.79 1011.46 1012.12 1012.75 1013.32 1013.81 1014.24 1014.59 1014.89 1015.14 1015.35 1015.55 1015.72 1015.88 1016.03 1016.18 1016.33 1016.49 1016.68 1016.89 1017.14 1017.42
1006.66 1006.56 1006.64 1006.88 1007.22 1007.61 1007.98 1008.27 1008.45 1008.50 1008.42 1008.25 1008.03 1007.80 1007.61 1007.48 1007.44 1007.49 1007.62 1007.81 1008.07 1008.36 1008.70 1009.08 1009.50 1009.96 1010.46 1010.99 1011.54 1012.10 1012.64 1013.15 1013.61 1014.03 1014.39 1014.70 1014.97 1015.20 1015.40 1015.57 1015.71 1015.85 1015.97 1016.11 1016.26 1016.44 1016.66 1016.92 1017.21
1006.45 1006.39 1006.56 1006.93 1007.44 1008.02 1008.60 1009.10 1009.47 1009.66 1009.69 1009.56 1009.34 1009.06 1008.79 1008.57 1008.43 1008.38 1008.44 1008.58 1008.80 1009.07 1009.37 1009.70 1010.06 1010.43 1010.83 1011.24 1011.67 1012.11 1012.54 1012.97 1013.39 1013.78 1014.13 1014.45 1014.73 1014.97 1015.17 1015.34 1015.48 1015.60 1015.73 1015.86 1016.01 1016.20 1016.43 1016.70 1017.01
1006.37 1006.33 1006.55 1007.01 1007.64 1008.38 1009.13 1009.81 1010.34 1010.67 1010.80 1010.74 1010.54 1010.25 1009.92 1009.63 1009.42 1009.31 1009.31 1009.41 1009.59 1009.83 1010.10 1010.39 1010.68 1010.98 1011.27 1011.57 1011.88 1012.20 1012.53 1012.87 1013.22 1013.56 1013.89 1014.20 1014.48 1014.72 1014.92 1015.09 1015.23 1015.35 1015.47 1015.60 1015.76 1015.96 1016.20 1016.49 1016.82
1006.40 1006.36 1006.60 1007.10 1007.80 1008.63 1009.50 1010.30 1010.97 1011.42 1011.66 1011.68 1011.52 1011.25 1010.92 1010.61 1010.36 1010.21 1010.18 1010.25 1010.42 1010.64 1010.89 1011.14 1011.39 1011.61 1011.82 1012.01 1012.21 1012.42 1012.64 1012.90 1013.17 1013.46 1013.75 1014.04 1014.30 1014.53 1014.72 1014.88 1015.01 1015.12 1015.24 1015.37 1015.54 1015.74 1016.00 1016.30 1016.64
1006.54 1006.49 1006.72 1007.21 1007.92 1008.78 1009.69 1010.56 1011.31 1011.86 1012.19 1012.30 1012.22 1012.00 1011.71 1011.42 1011.19 1011.05 1011.02 1011.09 1011.25 1011.47 1011.71 1011.94 1012.15 1012.32 1012.45 1012.56 1012.67 1012.78 1012.91 1013.08 1013.28 1013.51 1013.76 1014.00 1014.23 1014.44 1014.62 1014.76 1014.87 1014.97 1015.08 1015.20 1015.36 1015.57 1015.82 1016.13 1016.48
1006.80 1006.74 1006.94 1007.38 1008.05 1008.87 1009.76 1010.64 1011.42 1012.02 1012.43 1012.62 1012.63 1012.50 1012.30 1012.08 1011.90 1011.80 1011.80 1011.90 1012.07 1012.30 1012.53 1012.75 1012.93 1013.05 1013.13 1013.18 1013.21 1013.24 1013.30 1013.40 1013.53 1013.70 1013.90 1014.10 1014.30 1014.47 1014.62 1014.74 1014.83 1014.92 1015.00 1015.11 1015.26 1015.45 1015.70 1016.00 1016.35
Thickness
5660 5664 5668 5664 5653 5653 5668 5692 5706 5715 5726 5739 5747 5749 5747 5743 5737 5729 5754 5771 5774 5772 5769 5764 5763 5761 5761 5760 5759 5758 5757 5756 5755 5753 5751 5749 5747 5745 5744 5742 5740 5738 5736 5734 5732 5730 5729 5727 5726
5650 5655 5653 5647 5641 5645 5669 5689 5695 5707 5720 5732 5737 5740 5739 5738 5743 5744 5753 5762 5766 5765 5762 5759 5757 5756 5756 5756 5755 5754 5753 5753 5751 5750 5748 5746 5744 5742 5741 5739 5737 5735 5733 5731 5729 5727 5725 5724 5722
5640 5643 5635 5633 5638 5652 5671 5688 5694 5704 5714 5717 5720 5728 5729 5728 5737 5741 5749 5756 5757 5757 5755 5753 5751 5751 5751 5751 5750 5750 5749 5748 5747 5746 5744 5743 5741 5739 5737 5735 5733 5731 5729 5727 5725 5723 5722 5720 5720
5628 5625 5622 5623 5638 5659 5667 5676 5685 5690 5699 5707 5707 5709 5720 5729 5733 5738 5745 5748 5747 5748 5749 5746 5745 5745 5745 5745 5745 5745 5745 5744 5743 5742 5740 5739 5737 5735 5733 5731 5729 5727 5725 5723 5721 5720 5718 5717 5716
5614 5608 5606 5615 5632 5649 5662 5670 5674 5673 5679 5690 5694 5692 5701 5719 5728 5733 5736 5737 5737 5739 5740 5738 5738 5738 5739 5739 5740 5740 5740 5739 5739 5737 5736 5734 5733 5731 5729 5727 5725 5723 5721 5719 5718 5716 5715 5714 5713
5596 5596 5597 5608 5624 5638 5650 5658 5661 5662 5667 5675 5680 5680 5690 5708 5715 5721 5726 5728 5729 5731 5731 5730 5731 5732 5733 5733 5734 5734 5734 5734 5734 5733 5731 5730 5728 5726 5724 5722 5721 5719 5717 5716 5714 5713 5712 5711 5710
5582 5583 5591 5601 5611 5622 5637 5647 5647 5649 5651 5660 5668 5666 5678 5690 5699 5708 5713 5718 5720 5721 5722 5722 5723 5724 5726 5727 5727 5728 5728 5728 5728 5727 5726 5725 5723 5721 5720 5718 5716 5715 5714 5712 5711 5710 5709 5708 5707
5573 5572 5581 5589 5595 5607 5623 5631 5638 5638 5642 5654 5657 5654 5661 5676 5687 5694 5700 5704 5707 5710 5712 5714 5716 5717 5718 5720 5721 5722 5722 5722 5722 5722 5720 5719 5718 5716 5715 5713 5712 5711 5710 5708 5707 5706 5705 5704 5704
5562 5556 5567 5576 5583 5596 5607 5612 5621 5629 5631 5639 5646 5651 5658 5666 5673 5678 5682 5687 5693 5698 5702 5706 5709 5711 5712 5713 5714 5715 5715 5716 5716 5715 5715 5714 5713 5712 5710 5709 5707 5706 5705 5704 5703 5703 5702 5701 5701
5548 5548 5562 5571 5578 5583 5589 5594 5602 5607 5614 5622 5630 5641 5649 5652 5657 5662 5667 5673 5680 5687 5693 5698 5701 5704 5706 5707 5707 5708 5709 5709 5710 5709 5709 5709 5709 5708 5706 5704 5703 5702 5701 5700 5700 5699 5699 5699 5699
5544 5547 5556 5563 5568 5572 5575 5581 5589 5591 5597 5607 5613 5623 5632 5638 5644 5651 5658 5665 5671 5680 5685 5690 5694 5696 5700 5701 5702 5703 5703 5704 5705 5705 5705 5706 5705 5704 5702 5700 5698 5698 5697 5696 5696 5696 5696 5696 5697
5540 5545 5550 5555 5558 5561 5564 5570 5574 5579 5588 5598 5605 5612 5618 5625 5633 5641 5649 5657 5663 5670 5676 5681 5686 5689 5692 5694 5696 5698 5699 5700 5701 5702 5702 5703 5702 5700 5698 5697 5695 5695 5694 5694 5693 5693 5694 5695 5696
5534 5538 5544 5550 5551 5553 5556 5561 5564 5572 5582 5588 5594 5602 5608 5615 5623 5632 5640 5646 5654 5661 5668 5673 5679 5682 5685 5687 5689 5691 5693 5695 5697 5697 5698 5699 5698 5697 5695 5694 5693 5693 5692 5692 5691 5692 5692 5693 5693
5529 5532 5537 5540 5543 5545 5547 5554 5557 5567 5572 5578 5584 5592 5601 5608 5615 5621 5628 5635 5644 5652 5659 5665 5670 5675 5678 5680 5681 5683 5687 5689 5691 5693 5694 5694 5693 5693 5692 5691 5690 5690 5690 5689 5689 5689 5690 5690 5690
5524 5523 5528 5534 5537 5541 5541 5548 5554 5562 5565 5571 5577 5585 5592 5601 5607 5613 5620 5627 5635 5642 5650 5657 5663 5667 5671 5673 5675 5677 5680 5682 5685 5687 5688 5689 5689 5689 5688 5687 5686 5686 5686 5685 5685 5686 5686 5685 5685
5516 5515 5518 5533 5538 5540 5535 5540 5553 5558 5560 5565 5572 5579 5585 5593 5600 5608 5614 5620 5627 5635 5642 5649 5655 5661 5664 5667 5669 5671 5673 5676 5678 5680 5682 5683 5684 5684 5683 5683 5682 5682 5681 5681 5680 5680 5679 5679 5678
5511 5511 5518 5529 5537 5538 5535 5539 5551 5554 5558 5563 5569 5573 5579 5585 5593 5601 5608 5613 5620 5627 5635 5642 5647 5653 5656 5659 5662 5665 5667 5670 5672 5674 5676 5677 5678 5678 5678 5678 5678 5677 5677 5676 5675 5675 5674 5672 5671
5511 5514 5518 5524 5531 5532 5532 5538 5548 5551 5556 5560 5565 5570 5575 5580 5588 5596 5602 5608 5615 5623 5629 5636 5641 5646 5649 5653 5655 5657 5660 5662 5665 5667 5669 5671 5672 5672 5672 5673 5673 5672 5671 5670 5669 5668 5668 5666 5665
5512 5512 5514 5523 5530 5529 5531 5538 5546 5552 5555 5559 5563 5567 5572 5578 5586 5593 5599 5604 5611 5619 5625 5631 5635 5641 5644 5646 5648 5650 5653 5656 5658 5661 5663 5664 5665 5666 5667 5667 5667 5666 5665 5664 5663 5662 5660 5659 5658
5513 5511 5514 5523 5531 5531 5532 5538 5547 5554 5557 5562 5565 5567 5572 5577 5583 5590 5595 5601 5608 5614 5620 5626 5630 5636 5640 5642 5645 5647 5650 5651 5653 5655 5657 5658 5659 5660 5661 5661 5661 5660 5658 5657 5657 5655 5653 5651 5651
5515 5515 5517 5521 5528 5532 5532 5537 5547 5555 5559 5564 5567 5570 5573 5576 5581 5586 5591 5596 5602 5608 5615 5621 5626 5631 5635 5637 5639 5641 5642 5642 5644 5646 5649 5651 5652 5653 5654 5654 5654 5653 5652 5651 5650 5649 5646 5643 5643
5515 5525 5526 5526 5522 5524 5531 5527 5543 5552 5556 5561 5565 5568 5571 5577 5582 5587 5590 5594 5599 5605 5612 5618 5623 5626 5629 5632 5633 5635 5636 5637 5640 5641 5642 5644 5645 5646 5647 5647 5647 5646 5645 5644 5643 5643 5641 5639 5635
5522 5528 5529 5528 5526 5525 5534 5529 5536 5551 5553 5558 5564 5568 5572 5578 5582 5586 5590 5594 5598 5603 5609 5614 5618 5620 5623 5625 5628 5631 5633 5635 5635 5635 5635 5636 5637 5638 5639 5639 5639 5639 5637 5636 5636 5635 5634 5633 5630
5527 5528 5532 5534 5530 5527 5541 5538 5536 5543 5550 5557 5564 5568 5572 5577 5581 5585 5588 5592 5595 5599 5605 5610 5613 5616 5617 5620 5623 5627 5628 5629 5629 5628 5627 5628 5629 5630 5630 5630 5631 5631 5630 5629 5627 5628 5626 5625 5624
5529 5523 5525 5531 5531 5535 5548 5543 5534 5541 5550 5557 5563 5566 5570 5574 5577 5580 5582 5586 5590 5595 5600 5605 5608 5609 5612 5615 5618 5621 5622 5624 5624 5623 5622 5622 5621 5621 5622 5622 5622 5622 5621 5620 5620 5620 5618 5616 5615
5529 5527 5522 5527 5535 5540 5546 5538 5532 5543 5551 5556 5560 5563 5566 5569 5573 5575 5578 5581 5586 5590 5595 5599 5602 5605 5607 5609 5612 5615 5617 5618 5619 5618 5618 5617 5616 5615 5615 5614 5614 5613 5612 5612 5611 5610 5609 5607 5606
5531 5530 5535 5530 5540 5540 5541 5536 5538 5545 5550 5553 5557 5559 5562 5565 5568 5570 5574 5577 5581 5586 5590 5594 5596 5599 5602 5604 5607 5609 5610 5610 5611 5611 5610 5609 5609 5608 5608 5606 5605 5604 5603 5602 5601 5600 5599 5597 5597
5536 5536 5535 5534 5542 5542 5542 5535 5530 5538 5545 5550 5553 5555 5558 5561 5563 5566 5569 5573 5577 5580 5584 5588 5591 5593 5596 5598 5600 5602 5602 5602 5604 5604 5603 5602 5601 5600 5599 5598 5597 5594 5593 5592 5591 5590 5589 5587 5586
5536 5539 5540 5540 5544 5545 5539 5530 5534 5538 5544 5546 5548 5551 5553 5557 5558 5560 5564 5568 5571 5575 5578 5581 5584 5586 5588 5589 5590 5592 5593 5594 5595 5595 5594 5593 5592 5590 5589 5588 5586 5585 5583 5582 5581 5580 5579 5578 5577
5537 5539 5541 5537 5540 5547 5538 5526 5539 5541 5545 5546 5546 5549 5551 5553 5555 5557 5560 5562 5565 5568 5571 5573 5575 5577 5578 5580 5581 5582 5583 5584 5584 5584 5584 5584 5583 5582 5580 5578 5576 5575 5573 5571 5571 5570 5569 5567 5565